JASON-3

Last updated on Sun Dec 14 2025 00:02:32 GMT+0000 (Coordinated Universal Time)

1 41240U 16002A 25347.29390319 -.00000022 00000+0 15890-3 0 9997 2 41240 66.0390 156.6591 0007137 270.8614 89.1587 12.87626562463316
UTC large
Height (km)
Speed (km/s)
/
Latitude / Longitude
Inclination (degrees)
Orbital Period (minutes)
Azimuth
Elevation
Range (km)
Doppler Factor

Next 0 passes for location: London (51.5072 / 0.1276)

Sorry there are no passes over London.